Date,TemperatureHighF,TemperatureAvgF,TemperatureLowF,DewpointHighF,DewpointAvgF,DewpointLowF,HumidityHigh,HumidityAvg,HumidityLow,PressureMaxIn,PressureMinIn,WindSpeedMaxMPH,WindSpeedAvgMPH,GustSpeedMaxMPH,PrecipitationSumIn
2013-1-1,52.0,50.4,48.0,52.0,44.5,32.6,100,82,53,29.99,29.83,16,4,16,0.20
2013-1-2,51.0,48.5,47.0,50.0,46.2,44.5,100,92,87,30.02,29.93,11,3,12,0.19
2013-1-3,47.0,43.7,35.0,45.7,42.6,35.0,100,96,90,30.13,29.97,11,2,11,0.00
2013-1-4,50.0,38.6,29.0,37.7,31.9,24.8,100,79,52,30.21,30.09,16,2,16,0.00
2013-1-5,53.0,40.7,29.0,38.5,30.0,24.2,94,68,42,30.26,30.10,10,2,10,0.01
2013-1-6,55.0,46.5,42.0,45.8,40.9,35.3,100,81,69,30.12,29.95,13,3,14,0.01
2013-1-7,52.0,41.5,32.0,35.9,34.3,32.0,100,78,50,30.29,30.07,12,2,12,0.01
2013-1-8,58.0,46.7,33.0,45.0,40.0,32.0,100,79,57,30.32,30.22,8,1,8,0.00
2013-1-9,68.0,54.3,41.0,54.4,48.3,40.0,100,82,58,30.32,30.22,9,1,10,0.00
2013-1-10,70.0,59.2,49.0,57.0,51.7,47.0,100,78,55,30.36,30.21,13,3,13,0.01
2013-1-11,55.0,53.5,50.0,55.0,53.4,50.0,100,100,95,30.22,30.03,16,3,16,0.00
2013-1-12,76.0,63.1,53.0,69.1,60.8,53.0,100,93,69,30.05,29.94,18,3,18,0.01
2013-1-13,75.0,66.2,58.0,66.3,62.7,58.0,100,89,68,30.01,29.91,19,4,19,0.00
2013-1-14,72.0,66.2,62.0,69.4,64.6,60.9,100,95,87,30.00,29.92,13,3,13,0.12
2013-1-15,67.0,55.3,47.0,64.7,55.0,47.0,100,99,92,30.04,29.91,13,4,13,0.00
2013-1-16,54.0,49.2,45.0,54.0,49.2,45.0,100,100,100,29.93,29.83,10,2,11,0.22
2013-1-17,54.0,48.5,35.0,54.0,48.5,35.0,100,100,100,30.04,29.64,31,5,31,2.02
2013-1-18,49.0,39.2,32.0,40.0,33.4,27.9,100,82,48,30.35,30.04,13,3,13,0.22
2013-1-19,55.0,41.1,28.0,35.9,32.3,28.0,100,74,42,30.35,30.02,11,2,11,0.01
2013-1-20,63.0,48.7,36.0,41.3,35.8,30.7,91,63,41,30.02,29.86,14,3,14,0.01
2013-1-21,60.0,47.1,33.0,41.2,32.8,21.1,100,62,33,29.94,29.76,19,3,20,0.00
2013-1-22,47.0,38.8,31.0,23.6,14.2,6.5,55,37,21,30.10,29.84,14,4,16,0.00
2013-1-23,47.0,36.0,25.0,31.7,20.3,11.5,77,54,37,30.20,29.91,19,3,19,0.01
2013-1-24,52.0,40.1,29.0,39.8,22.8,7.2,92,54,30,30.32,29.84,21,6,22,0.00
2013-1-25,30.0,27.5,24.0,28.5,19.3,9.3,100,73,43,30.33,29.97,12,2,14,0.00
2013-1-26,46.0,34.1,27.0,40.5,31.9,27.0,100,92,66,30.22,29.95,7,2,8,0.02
2013-1-27,46.0,38.3,30.0,34.0,31.6,28.5,100,79,56,30.43,30.22,11,3,11,0.00
2013-1-28,52.0,44.1,35.0,51.7,40.1,31.4,100,86,70,30.37,30.14,16,2,18,0.01
2013-1-29,73.0,59.2,45.0,63.2,55.2,45.0,100,88,66,30.15,29.92,19,4,21,0.00
2013-1-30,77.0,67.2,51.0,67.9,62.6,51.0,100,87,63,29.92,29.33,42,7,42,0.77
2013-1-31,51.0,46.1,40.0,51.0,33.8,22.9,100,65,37,29.92,29.45,32,8,33,0.00
2013-2-1,43.0,38.7,29.0,32.0,17.8,5.0,66,45,23,30.25,29.85,26,8,28,0.01
2013-2-2,49.0,37.3,26.0,39.0,19.3,10.8,91,51,29,30.28,29.93,31,5,31,0.01
2013-2-3,55.0,44.1,36.0,39.4,33.5,23.8,100,70,35,29.94,29.75,26,6,26,0.00
2013-2-4,52.0,40.8,30.0,32.2,28.8,26.3,89,65,40,30.04,29.89,14,2,14,0.00
2013-2-5,65.0,49.9,36.0,47.3,39.0,30.6,95,68,46,29.91,29.78,26,4,26,0.00
2013-2-6,63.0,50.7,37.0,47.6,36.1,26.2,100,65,27,30.10,29.87,13,2,13,0.00
2013-2-7,50.0,44.6,41.0,43.7,37.6,27.4,100,79,42,30.16,29.85,19,5,21,0.38
2013-2-8,61.0,48.2,40.0,50.9,41.9,31.0,100,81,51,29.98,29.77,17,5,24,0.04
2013-2-9,58.0,44.5,31.0,33.9,25.3,13.8,98,53,19,30.20,29.98,14,3,14,0.00
2013-2-10,59.0,47.7,36.0,51.0,32.9,22.3,100,60,29,30.33,30.10,14,3,16,0.17
2013-2-11,62.0,57.8,51.0,62.0,57.6,51.0,100,99,95,30.11,29.88,20,6,21,0.12
2013-2-12,63.0,53.8,47.0,54.0,43.2,31.0,100,73,31,30.03,29.84,10,2,11,0.07
2013-2-13,50.0,47.3,41.0,50.0,46.9,38.6,100,99,83,29.87,29.59,21,4,24,0.12
2013-2-14,54.0,43.0,33.0,42.2,37.7,33.0,100,84,57,29.99,29.81,13,2,14,0.00
2013-2-15,61.0,46.1,33.0,45.9,36.9,33.0,100,75,37,30.01,29.83,15,2,16,0.00
2013-2-16,49.0,38.0,29.0,39.5,35.4,28.0,100,91,63,29.89,29.73,21,3,24,0.15
2013-2-17,39.0,31.2,24.0,29.0,23.6,18.2,100,75,45,30.15,29.89,23,4,23,0.00
2013-2-18,54.0,39.9,24.0,31.4,26.2,20.4,92,61,38,30.27,30.07,14,2,14,0.15
2013-2-19,50.0,42.5,38.0,49.0,39.1,28.2,100,89,63,30.08,29.74,23,4,23,0.26
2013-2-20,56.0,43.1,30.0,35.0,25.0,15.4,89,53,25,29.98,29.87,12,3,13,0.00
2013-2-21,58.0,45.0,30.0,32.1,22.5,13.6,75,43,25,30.10,29.94,10,3,11,0.00
2013-2-22,49.0,40.1,38.0,40.0,37.6,26.0,100,93,42,30.14,29.95,14,4,16,0.29
2013-2-23,45.0,40.8,38.0,45.0,40.8,38.0,100,100,100,29.98,29.73,10,2,10,0.55
2013-2-24,63.0,50.9,44.0,52.0,42.7,29.6,100,77,43,29.91,29.75,13,3,14,0.00
2013-2-25,48.0,43.0,40.0,31.5,29.2,26.5,66,58,49,30.07,29.90,19,6,21,0.00
2013-2-26,49.0,41.2,35.0,49.0,39.8,27.6,100,95,61,29.96,29.51,18,5,21,1.09
2013-2-27,57.0,47.3,36.0,47.2,41.4,36.0,100,82,60,29.73,29.59,20,5,20,0.01
2013-2-28,53.0,44.7,37.0,41.3,33.2,28.4,99,66,42,29.81,29.64,24,5,28,0.00
2013-3-1,51.0,42.2,31.0,35.8,31.9,28.2,95,68,50,29.87,29.79,16,3,16,0.00
2013-3-2,46.0,40.0,34.0,43.4,35.4,27.9,100,84,65,29.83,29.77,16,3,18,0.20
2013-3-3,47.0,36.8,28.0,28.4,24.4,19.5,95,63,39,29.91,29.80,17,4,19,0.00
2013-3-4,53.0,40.5,26.0,27.5,22.4,18.3,85,52,27,30.05,29.90,16,3,18,0.00
2013-3-5,61.0,49.7,39.0,56.0,40.7,26.1,100,72,48,29.98,29.52,16,4,19,0.46
2013-3-6,50.0,43.3,36.0,49.0,31.2,26.3,100,64,45,30.02,29.53,32,8,36,0.00
2013-3-7,55.0,42.8,30.0,34.3,30.4,27.1,97,65,39,30.15,30.01,15,4,19,0.01
2013-3-8,57.0,44.9,32.0,30.3,26.8,24.4,84,52,29,30.22,30.09,18,4,19,0.00
2013-3-9,62.0,49.7,35.0,37.1,31.8,27.0,78,52,31,30.26,30.13,10,2,12,0.00
2013-3-10,69.0,54.6,39.0,44.2,38.2,35.6,91,58,32,30.20,30.05,8,2,12,0.00
2013-3-11,71.0,58.9,48.0,59.0,43.9,20.2,100,59,33,30.09,29.76,30,4,30,0.09
2013-3-12,68.0,59.9,52.0,66.7,58.0,28.7,100,95,40,29.87,29.67,21,6,25,0.78
2013-3-13,60.0,48.8,38.0,37.7,30.0,19.7,91,52,30,30.04,29.87,23,5,24,0.00
2013-3-14,55.0,43.0,32.0,26.5,20.8,18.0,64,43,24,30.19,30.04,16,5,18,0.00
2013-3-15,67.0,51.2,32.0,42.8,32.2,19.6,81,51,32,30.12,29.81,21,4,21,0.00
2013-3-16,79.0,67.1,57.0,50.1,45.1,40.0,64,47,31,29.82,29.64,26,9,32,0.00
2013-3-17,81.0,63.7,50.0,55.4,47.4,40.4,80,57,36,29.97,29.76,20,5,23,0.00
2013-3-18,50.0,45.6,42.0,47.0,44.4,42.0,100,96,80,30.03,26.97,15,5,18,0.63
2013-3-19,67.0,53.8,43.0,56.0,36.3,16.3,100,63,19,29.94,29.77,24,6,26,0.00
2013-3-20,58.0,50.2,41.0,28.9,19.7,13.4,51,31,20,30.02,29.69,16,3,17,0.00
2013-3-21,49.0,42.3,34.0,30.7,16.6,11.2,58,36,24,29.88,29.69,21,6,24,0.00
2013-3-22,54.0,41.1,28.0,29.3,20.4,13.4,72,45,29,30.01,29.87,15,3,17,0.00
2013-3-23,52.0,45.1,41.0,46.7,39.5,28.9,100,82,52,29.98,29.81,8,2,8,0.03
2013-3-24,45.0,42.5,40.0,45.0,42.5,40.0,100,100,100,29.85,29.50,21,4,23,0.79
2013-3-25,49.0,43.0,39.0,44.5,34.2,23.8,100,75,44,29.81,29.50,27,6,27,0.04
2013-3-26,47.0,37.6,30.0,28.9,27.1,24.6,88,67,46,30.08,29.80,15,5,22,0.00
2013-3-27,54.0,43.2,30.0,31.7,26.2,21.8,93,55,32,30.17,30.07,18,4,19,0.00
2013-3-28,51.0,38.0,31.0,29.1,24.6,20.2,85,61,30,30.21,30.13,4,2,8,0.00
2013-3-29,64.0,49.7,31.0,38.6,29.5,24.0,89,51,26,30.26,30.11,16,3,16,0.00
2013-3-30,68.0,57.0,48.0,54.2,47.2,38.2,100,73,44,30.16,29.97,13,2,13,0.18
2013-3-31,74.0,61.1,52.0,63.6,54.9,48.2,100,82,54,29.97,29.73,24,6,27,0.35
2013-4-1,75.0,68.8,57.0,55.3,41.5,37.0,71,38,27,29.87,29.76,26,5,26,0.03
2013-4-2,66.0,57.1,44.0,41.4,36.2,23.3,79,48,27,30.07,29.86,16,4,16,0.03
2013-4-3,64.0,56.1,48.0,29.3,23.5,17.3,35,28,22,30.18,30.01,19,5,19,0.00
2013-4-4,54.0,44.3,39.0,41.0,34.9,23.6,100,75,34,30.18,29.87,21,5,21,0.81
2013-4-5,64.0,45.5,39.0,47.3,42.1,39.0,100,90,49,29.95,29.85,11,3,13,0.00
2013-4-6,72.0,57.1,40.0,44.6,40.2,34.5,100,60,30,30.14,29.95,14,3,15,0.00
2013-4-7,76.0,60.9,44.0,53.2,46.9,38.5,85,62,41,30.19,30.01,19,3,22,0.00
2013-4-8,82.0,76.4,68.0,60.9,55.7,52.1,63,49,42,30.08,29.96,17,5,18,0.00
2013-4-9,83.0,75.2,69.0,60.1,59.0,57.4,73,58,45,29.99,29.95,16,3,16,0.00
2013-4-10,74.0,66.9,61.0,64.7,61.7,60.0,100,84,63,29.99,29.79,16,4,16,0.00
2013-4-11,85.0,73.3,63.0,70.4,64.9,59.4,100,77,53,29.86,29.63,19,4,24,0.00
2013-4-12,83.0,75.7,64.0,73.7,55.5,41.9,98,52,31,29.70,29.51,26,7,28,0.29
2013-4-13,75.0,60.5,49.0,49.4,44.6,38.7,92,59,27,29.89,29.70,8,2,11,0.00
2013-4-14,82.0,65.9,50.0,58.7,48.6,43.1,91,58,29,29.97,29.86,14,2,16,0.00
2013-4-15,75.0,71.3,66.0,64.4,63.1,61.4,91,76,64,30.06,29.96,9,2,10,0.01
2013-4-16,81.0,70.5,62.0,69.0,63.8,61.0,100,81,54,30.17,30.05,10,2,11,0.01
2013-4-17,89.0,74.3,62.0,69.5,64.7,59.5,100,75,42,30.13,29.96,14,2,16,0.00
2013-4-18,85.0,74.0,66.0,70.6,65.4,62.4,98,76,51,30.03,29.86,16,3,18,0.00
2013-4-19,85.0,70.8,57.0,73.1,67.6,56.4,100,91,63,29.87,29.63,27,5,28,0.44
2013-4-20,68.0,57.3,48.0,57.0,42.4,33.6,100,62,31,30.14,29.77,14,3,20,0.00
2013-4-21,68.0,56.2,45.0,47.5,43.9,40.4,98,66,44,30.34,30.14,18,4,19,0.00
2013-4-22,66.0,56.0,45.0,44.6,37.3,30.1,85,54,27,30.32,30.11,19,4,21,0.00
2013-4-23,74.0,60.9,52.0,57.4,51.5,41.7,91,72,51,30.18,30.01,11,3,11,0.00
2013-4-24,80.0,66.4,54.0,65.5,59.0,54.0,100,80,52,30.06,29.91,21,4,21,0.00
2013-4-25,76.0,65.8,55.0,63.6,49.3,35.2,96,59,27,30.14,29.93,16,3,17,0.00
2013-4-26,79.0,64.3,51.0,52.2,42.2,35.7,80,47,25,30.32,30.13,16,3,17,0.00
2013-4-27,72.0,62.2,58.0,62.0,55.1,48.3,100,79,55,30.26,30.12,10,2,10,0.31
2013-4-28,63.0,59.4,57.0,63.0,59.4,57.0,100,100,100,30.13,29.95,15,3,16,0.36
2013-4-29,74.0,63.5,60.0,67.0,62.8,60.0,100,98,77,29.96,29.86,9,1,10,0.01
2013-4-30,75.0,66.8,62.0,68.0,64.5,60.8,100,93,73,30.04,29.87,13,3,14,0.00
2013-5-1,68.0,62.6,57.0,63.0,60.6,57.0,100,93,83,30.16,30.04,18,3,18,0.00
2013-5-2,66.0,62.0,60.0,65.1,61.5,60.0,100,98,92,30.19,30.10,14,4,16,0.06
2013-5-3,72.0,64.2,58.0,61.7,58.0,49.2,99,81,63,30.12,30.00,21,5,21,0.00
2013-5-4,68.0,59.5,53.0,57.4,52.8,46.7,91,79,64,30.03,29.88,20,6,23,0.00
2013-5-5,63.0,58.6,55.0,63.0,57.6,53.7,100,97,87,29.92,29.75,23,7,26,0.37
2013-5-6,82.0,66.8,60.0,69.9,60.9,51.5,100,84,50,29.81,29.73,24,4,24,0.55
2013-5-7,78.0,63.2,51.0,59.6,55.7,51.0,100,79,51,29.86,29.78,13,2,15,0.00
2013-5-8,83.0,68.8,56.0,66.5,60.8,56.0,100,79,47,29.91,29.82,15,2,16,0.00
2013-5-9,92.0,73.2,59.0,66.2,60.9,56.7,100,71,34,29.98,29.88,11,2,13,0.00
2013-5-10,92.0,77.1,64.0,69.1,64.3,61.2,96,68,42,29.94,29.82,20,3,21,0.00
2013-5-11,90.0,76.5,68.0,71.3,67.0,64.8,100,74,48,29.84,29.68,23,4,24,0.07
2013-5-12,84.0,68.7,61.0,68.0,61.7,46.5,100,83,30,29.80,29.70,16,3,19,0.05
2013-5-17,76.0,75.8,75.0,66.7,66.2,65.9,75,72,71,29.94,29.92,6,1,6,0.00
2013-5-18,80.0,74.3,70.0,71.5,68.5,65.8,95,82,67,30.00,29.93,13,2,14,0.00
2013-5-19,85.0,73.2,70.0,76.8,71.7,69.4,100,96,74,29.98,29.90,16,2,19,0.01
2013-5-24,76.0,70.5,63.0,47.0,43.1,39.6,52,38,29,30.04,29.92,16,4,18,0.00
2013-5-25,87.0,67.0,50.0,56.1,48.7,40.4,98,57,25,30.18,30.01,15,2,16,0.00
2013-5-26,85.0,69.1,62.0,58.9,50.7,44.0,81,54,31,30.15,30.02,11,2,12,0.00
2013-5-27,93.0,75.6,60.0,65.9,60.7,55.7,95,63,34,30.13,29.99,12,2,13,0.00
2013-5-28,94.0,78.5,68.0,71.4,68.6,65.9,100,74,44,30.09,29.99,14,3,15,0.00
2013-5-29,94.0,78.4,65.0,72.3,67.1,63.9,100,71,43,30.10,30.00,12,2,12,0.00
2013-5-30,96.0,79.0,66.0,72.5,67.6,63.4,100,72,39,30.13,29.98,11,2,12,0.00
2013-5-31,95.0,80.9,70.0,75.6,70.9,66.9,100,74,46,30.07,29.94,12,2,13,0.00
2013-6-1,92.0,79.6,71.0,74.1,70.3,66.3,100,75,52,29.99,29.86,14,3,14,0.05
2013-6-2,85.0,76.7,71.0,74.1,70.2,67.1,100,82,58,29.93,29.74,17,3,18,2.25
2013-6-3,80.0,72.3,69.0,75.1,71.2,69.0,100,97,77,29.81,29.69,13,2,16,0.43
2013-6-4,84.0,75.3,68.0,74.0,70.0,68.0,100,85,64,29.90,29.79,11,3,13,0.00
2013-6-5,81.0,73.0,69.0,75.8,71.5,68.2,100,95,79,29.93,29.81,23,3,23,0.20
2013-6-6,77.0,72.8,70.0,77.0,72.8,70.0,100,100,100,29.83,29.66,19,3,20,0.82
2013-6-7,81.0,72.9,69.0,79.0,72.2,67.9,100,98,81,29.69,29.47,18,3,24,0.65
2013-6-8,87.0,76.1,69.0,79.1,72.6,69.0,100,90,68,29.92,29.67,11,2,11,0.01
2013-6-9,90.0,77.4,71.0,76.5,73.5,71.0,100,89,60,29.98,29.89,21,2,21,0.01
2013-6-10,87.0,75.7,72.0,81.1,75.1,71.0,100,98,76,29.91,29.74,26,4,26,1.27
2013-6-11,90.0,78.8,71.0,77.5,70.8,64.5,100,80,49,29.82,29.75,17,3,17,0.00
2013-6-12,92.0,78.7,69.0,78.3,73.8,69.0,100,86,61,29.84,29.72,16,2,18,0.00
2013-6-13,98.0,84.2,74.0,78.1,75.6,68.5,100,79,44,29.72,29.51,24,4,29,0.31
2013-6-14,86.0,75.2,65.0,74.0,64.4,56.6,100,73,42,29.85,29.60,18,2,18,0.01
2013-6-15,87.0,75.6,64.0,68.5,65.3,61.8,100,73,46,29.96,29.85,13,1,13,0.00
2013-6-16,91.0,78.3,67.0,73.7,69.4,64.9,97,76,54,29.98,29.84,16,3,18,0.00
2013-6-17,88.0,77.8,73.0,76.8,72.4,68.9,100,84,64,29.87,29.76,18,3,18,0.00
2013-6-18,87.0,77.5,73.0,77.1,74.3,69.8,100,91,68,29.81,29.61,23,4,23,0.03
2013-6-19,90.0,77.8,72.0,74.0,70.2,63.3,100,80,47,29.93,29.72,13,2,13,0.00
2013-6-20,85.0,76.6,69.0,70.5,68.6,65.6,100,78,57,30.04,29.92,13,3,13,0.00
2013-6-21,87.0,76.1,66.0,67.9,64.9,62.3,91,70,51,30.09,29.98,13,3,14,0.00
2013-6-22,89.0,76.0,67.0,73.5,68.6,62.6,96,79,59,30.03,29.92,13,2,13,0.00
2013-6-30,72.0,69.8,69.0,72.0,69.8,69.0,100,100,100,29.70,29.66,10,2,11,1.22
2013-7-1,83.0,74.9,69.0,79.4,73.5,69.0,100,96,82,29.82,29.67,16,2,16,0.13
2013-7-2,76.0,74.5,74.0,76.0,74.5,73.0,100,100,98,29.96,29.81,14,3,16,0.10
2013-7-3,82.0,76.8,75.0,80.0,76.4,75.0,100,99,88,30.04,29.95,12,2,16,0.10
2013-7-4,92.0,80.2,75.0,81.4,76.9,74.2,100,91,62,30.07,29.99,19,4,19,0.06
2013-7-5,89.0,79.4,75.0,80.6,77.1,75.0,100,93,69,30.08,30.00,16,2,17,0.54
2013-7-6,86.0,77.3,73.0,82.0,76.6,73.0,100,98,83,30.07,29.93,18,2,27,0.18
2013-7-7,90.0,79.0,74.0,81.4,77.0,74.0,100,94,70,30.01,29.90,13,2,14,0.51
2013-7-8,87.0,79.0,74.0,82.0,76.7,74.0,100,93,75,30.00,29.92,11,2,11,0.07
2013-7-9,91.0,81.4,75.0,80.7,77.2,75.0,100,88,65,29.99,29.88,13,2,14,0.07
2013-7-10,91.0,79.0,73.0,79.2,76.0,73.0,100,91,68,29.96,29.79,14,2,14,0.00
2013-7-11,80.0,76.1,75.0,80.0,75.7,72.8,100,99,91,29.79,29.70,12,2,12,0.52
2013-7-12,82.0,78.1,74.0,78.1,74.2,71.8,95,88,81,29.83,29.73,11,4,13,0.01
2013-7-13,82.0,75.4,72.0,76.4,73.9,71.8,100,95,82,29.94,29.82,14,2,16,0.06
2013-7-14,88.0,77.1,71.0,81.1,75.7,71.0,100,96,70,30.10,29.91,21,4,23,1.00
2013-7-15,90.0,79.9,72.0,79.4,75.0,72.0,100,87,64,30.14,30.04,10,2,13,0.00
2013-7-16,93.0,82.4,73.0,78.7,75.1,72.3,100,81,54,30.11,30.00,8,1,9,0.00
2013-7-17,92.0,79.5,74.0,79.8,76.6,72.4,100,92,67,30.06,29.96,13,1,13,0.00
2013-7-18,92.0,79.5,71.0,80.2,75.4,71.0,100,89,64,29.98,29.88,10,1,10,0.00
2013-7-19,92.0,82.6,76.0,79.6,76.6,73.7,100,83,63,29.94,29.81,13,2,13,0.00
2013-7-20,87.0,79.1,75.0,79.3,75.9,73.4,100,91,73,29.87,29.75,11,3,13,0.00
2013-7-21,90.0,78.8,74.0,78.9,75.8,74.0,100,92,66,29.84,29.72,11,2,13,0.02
2013-7-22,87.0,77.7,72.0,79.1,75.0,72.0,100,92,72,29.81,29.66,13,3,16,0.01
2013-7-23,89.0,81.2,74.0,76.4,74.5,70.4,100,82,59,29.70,29.59,14,4,16,0.00
2013-7-24,82.0,75.2,71.0,77.7,74.3,71.0,100,97,85,29.68,29.58,7,1,7,0.29
2013-7-25,84.0,75.8,70.0,74.2,71.7,70.0,100,88,68,29.83,29.64,10,2,10,0.00
2013-7-26,88.0,78.0,69.0,74.4,71.4,69.0,100,82,57,29.92,29.81,11,2,11,0.00
2013-7-27,83.0,75.2,71.0,77.1,74.1,70.1,100,97,80,29.85,29.73,19,3,23,0.26
2013-7-28,87.0,77.9,72.0,77.1,73.6,71.9,100,88,65,29.81,29.74,14,3,14,0.00
2013-7-29,88.0,79.1,72.0,75.8,72.4,67.9,100,82,56,29.96,29.80,10,2,12,0.00
2013-7-30,87.0,79.2,71.0,73.7,70.3,65.3,100,76,56,30.02,29.93,11,2,11,0.00
2013-8-5,87.0,81.1,76.0,70.6,68.2,64.8,80,66,51,29.84,29.81,11,2,12,0.00
2013-8-6,76.0,72.1,69.0,74.0,70.3,67.2,100,94,79,29.87,29.79,9,3,15,0.53
2013-8-7,86.0,77.2,70.0,76.5,72.3,68.1,100,86,61,29.90,29.81,13,2,13,0.00
2013-8-8,88.0,79.4,74.0,77.9,74.9,72.2,100,87,67,29.89,29.81,10,2,11,0.00
2013-8-9,91.0,81.7,75.0,80.0,77.0,74.8,100,87,67,29.89,29.81,16,3,17,0.00
2013-8-10,93.0,82.0,75.0,80.4,76.7,73.2,100,85,62,29.91,29.83,15,3,15,0.00
2013-8-11,94.0,82.0,74.0,79.2,75.8,73.4,100,84,56,29.94,29.85,16,2,17,0.00
2013-8-12,94.0,83.0,74.0,78.1,75.1,71.5,100,80,50,29.88,29.76,13,2,13,0.00
2013-8-13,91.0,82.6,74.0,80.4,75.7,69.9,100,81,63,29.72,29.63,18,3,19,0.36
2013-8-14,77.0,73.0,69.0,74.0,67.8,61.5,100,85,62,29.88,29.67,11,2,14,0.00
2013-8-15,78.0,70.6,67.0,65.9,61.5,57.8,93,74,52,29.94,29.86,11,3,15,0.00
2013-8-16,69.0,65.6,62.0,66.0,62.6,59.6,100,90,78,29.96,29.88,11,2,12,0.02
2013-8-17,67.0,64.5,62.0,67.0,64.3,62.0,100,99,87,29.99,29.93,10,1,10,0.84
2013-8-18,75.0,68.3,67.0,74.0,68.3,67.0,100,100,100,30.03,29.95,7,0,8,0.02
2013-8-23,81.0,77.0,75.0,72.3,71.0,69.6,90,82,71,29.87,29.78,8,1,9,0.00
2013-8-24,83.0,73.9,67.0,71.2,65.7,60.9,96,77,53,30.07,29.86,14,3,15,0.00
2013-8-25,81.0,71.3,63.0,68.6,63.4,59.5,100,78,51,30.17,30.06,13,2,13,0.00
2013-8-26,84.0,70.7,59.0,66.2,63.4,59.0,100,80,53,30.11,29.92,7,1,8,0.00
2013-8-27,87.0,76.0,65.0,73.2,68.8,63.3,99,80,55,29.94,29.78,11,2,11,0.00
2013-8-28,89.0,79.5,71.0,76.1,73.3,70.2,100,83,61,29.82,29.73,9,2,10,0.00
2013-8-29,92.0,82.0,75.0,76.3,73.7,70.8,96,78,52,29.78,29.68,13,3,13,0.00
2013-8-30,81.0,74.9,72.0,73.2,71.8,70.1,100,90,71,29.86,29.77,11,3,13,0.00
2013-9-14,77.0,72.8,66.0,59.0,57.3,54.7,75,59,49,29.90,29.81,11,3,13,0.00
2013-9-15,82.0,73.7,62.0,67.4,63.9,56.4,89,72,57,29.98,29.88,10,1,11,0.00
2013-9-16,86.0,78.4,70.0,71.7,64.3,56.3,99,65,40,29.95,29.83,12,2,12,0.00
2013-9-17,76.0,69.8,64.0,64.8,58.1,53.9,78,67,50,30.09,29.94,16,4,16,0.00
2013-9-18,75.0,65.6,57.0,57.7,54.4,51.2,89,69,49,30.08,29.94,11,2,13,0.00
2013-9-19,79.0,67.6,58.0,63.5,59.4,54.5,95,76,56,30.00,29.88,7,1,8,0.00
2013-9-20,86.0,73.0,63.0,70.0,65.3,61.0,96,78,51,29.89,29.72,10,2,11,0.00
2013-9-21,76.0,70.6,66.0,71.0,68.7,66.0,100,94,81,29.73,29.45,21,2,21,1.52
2013-9-22,76.0,66.8,59.0,66.0,59.3,54.2,100,80,47,29.70,29.45,19,3,22,0.23
2013-9-23,74.0,64.5,57.0,60.7,58.2,55.0,100,82,56,29.85,29.70,12,2,12,0.00
2013-9-24,78.0,67.6,58.0,61.5,58.9,56.3,97,76,54,29.88,29.73,9,2,10,0.00
2013-9-25,67.0,64.4,61.0,65.0,62.3,58.6,100,93,77,29.74,29.66,7,1,8,0.20
2013-9-26,75.0,65.8,59.0,64.7,59.5,54.1,100,82,51,29.82,29.67,13,1,13,0.01
2013-9-27,74.0,63.9,55.0,60.7,56.2,53.0,100,78,51,29.96,29.81,14,2,16,0.00
2013-9-28,72.0,62.2,54.0,58.1,54.9,52.2,100,79,53,30.05,29.95,16,2,16,0.00
2013-9-29,72.0,63.0,57.0,61.0,56.6,53.8,97,81,57,29.97,29.83,7,1,14,0.00
2013-9-30,75.0,63.4,54.0,62.9,57.4,54.0,100,83,52,29.91,29.81,8,1,8,0.00
2013-10-1,81.0,67.5,55.0,64.0,59.3,55.0,100,78,49,29.95,29.83,12,2,13,0.00
2013-10-2,82.0,69.4,59.0,66.2,62.2,59.0,100,81,49,29.95,29.85,7,1,9,0.00
2013-10-3,83.0,71.0,62.0,69.6,64.0,60.9,100,81,48,29.93,29.84,8,1,13,0.00
2013-10-4,86.0,71.9,61.0,68.8,64.3,61.0,100,79,49,29.94,29.85,8,1,8,0.00
2013-10-5,85.0,73.4,63.0,70.8,65.7,62.0,100,79,49,29.93,29.81,9,1,9,0.00
2013-10-6,83.0,73.5,64.0,71.2,66.4,64.0,100,80,57,29.85,29.70,13,2,13,0.00
2013-10-7,77.0,71.6,66.0,75.4,69.7,54.7,100,94,68,29.78,29.62,13,3,16,0.18
2013-10-8,66.0,61.4,59.0,55.1,50.6,46.4,72,68,63,29.99,29.77,19,4,20,0.00
2013-10-9,70.0,64.0,55.0,54.2,51.1,46.0,73,63,54,29.99,29.90,16,2,17,0.00
2013-10-10,71.0,63.6,55.0,62.6,56.6,49.3,86,78,68,29.90,29.77,7,3,13,0.00
2013-10-11,78.0,70.0,62.0,63.3,59.9,57.4,88,71,52,29.81,29.71,12,2,13,0.00
2013-10-12,75.0,67.3,59.0,66.4,62.5,59.0,100,85,69,29.86,29.75,7,1,7,0.00
2013-10-13,68.0,65.9,64.0,64.6,63.5,62.5,97,92,86,30.00,29.86,14,2,16,0.00
2013-10-14,67.0,63.5,60.0,65.5,61.9,59.0,100,94,86,30.03,29.95,14,3,14,0.00
2013-10-15,73.0,64.2,58.0,59.9,56.5,50.3,99,78,45,29.99,29.84,13,2,14,0.00
2013-10-16,73.0,63.7,55.0,64.3,59.7,54.4,100,88,66,29.89,29.76,8,1,9,0.00
2013-10-17,70.0,64.7,62.0,66.9,63.7,61.7,100,97,84,29.77,29.70,7,1,12,0.04
2013-10-18,66.0,62.7,59.0,66.0,61.8,55.4,100,97,77,29.83,29.69,11,2,11,0.00
2013-10-19,68.0,62.4,57.0,65.7,59.8,56.2,100,91,76,29.77,29.65,12,1,12,0.00
2013-10-20,66.0,56.1,48.0,56.7,49.3,43.7,100,81,48,29.92,29.73,11,1,13,0.00
2013-10-21,70.0,56.7,44.0,56.4,51.3,44.0,100,84,54,29.99,29.83,9,1,10,0.00
2013-10-22,66.0,59.9,58.0,62.0,57.9,55.4,100,93,80,29.86,29.65,8,2,10,0.00
2013-10-23,66.0,56.9,46.0,59.0,49.8,32.1,100,80,44,29.87,29.57,21,4,23,0.00
2013-10-24,49.0,41.6,38.0,40.4,37.2,33.5,97,85,63,30.01,29.87,5,1,8,0.00
2013-10-25,54.0,48.5,40.0,36.6,32.9,29.0,76,56,41,30.19,30.12,14,2,15,0.00
2013-10-26,59.0,46.1,33.0,40.0,35.3,31.6,99,70,39,30.19,29.92,14,2,14,0.00
2013-10-27,68.0,54.5,41.0,51.2,45.1,39.0,98,73,48,29.97,29.88,11,1,11,0.00
2013-10-28,66.0,56.5,51.0,62.1,54.8,49.9,100,94,77,30.08,29.93,8,1,9,0.04
2013-10-29,72.0,60.2,51.0,61.3,55.4,51.0,100,86,59,30.15,30.05,6,1,7,0.00
2013-10-30,77.0,63.5,53.0,61.0,57.2,53.0,100,82,53,30.12,29.97,14,2,14,0.00
2013-10-31,72.0,65.6,59.0,65.6,60.0,57.3,97,83,66,29.99,29.73,16,2,16,0.00
2013-11-1,69.0,64.9,58.0,68.0,63.5,58.0,100,95,86,29.74,29.49,21,4,26,0.56
2013-11-2,69.0,58.5,50.0,60.0,53.3,44.6,100,85,43,29.79,29.55,18,2,20,0.01
2013-11-3,61.0,51.1,42.0,46.3,40.9,35.9,99,71,42,30.15,29.79,14,2,15,0.00
2013-11-4,58.0,48.4,38.0,41.0,37.2,32.9,99,68,39,30.33,30.14,14,2,15,0.00
2013-11-5,58.0,49.2,39.0,50.2,42.0,33.6,87,76,65,30.36,30.22,12,2,13,0.00
2013-11-6,71.0,59.2,50.0,58.2,53.4,49.2,100,83,60,30.23,29.94,9,2,9,0.00
2013-11-7,70.0,56.4,47.0,57.7,39.3,34.1,65,53,40,29.95,29.79,21,4,21,0.00
2013-11-8,58.0,47.8,39.0,36.2,31.7,23.3,83,57,27,30.14,29.95,13,2,14,0.00
2013-11-9,60.0,47.4,33.0,38.5,34.5,30.9,98,65,36,30.21,30.03,12,2,14,0.00
2013-11-10,70.0,55.1,43.0,42.3,38.4,32.6,89,57,26,30.07,29.94,11,2,11,0.00
2013-11-11,60.0,49.2,40.0,38.7,33.1,28.2,85,56,32,30.18,29.98,12,2,15,0.00
2013-11-12,65.0,45.4,33.0,42.3,35.9,21.0,100,73,33,30.27,29.90,22,4,25,0.06
2013-11-13,44.0,35.1,28.0,27.9,22.4,17.8,88,62,36,30.37,30.26,13,2,15,0.04
2013-11-14,30.0,29.2,28.0,28.0,27.2,26.5,95,92,88,30.29,30.25,2,0,4,0.00
2013-11-20,46.0,45.3,45.0,34.9,34.3,33.9,66,65,64,30.25,30.22,10,3,11,0.00
2013-11-21,59.0,50.6,44.0,48.0,41.5,33.9,83,71,62,30.30,30.20,11,2,12,0.00
2013-11-22,68.0,58.7,52.0,60.9,54.3,45.7,99,85,75,30.21,29.95,14,2,14,0.00
2013-11-23,60.0,56.3,45.0,60.0,47.4,23.3,100,75,37,30.03,29.90,17,3,17,0.00
2013-11-24,44.0,35.7,28.0,24.6,13.1,5.1,56,40,25,30.34,30.03,18,4,19,0.00
2013-11-25,43.0,34.0,23.0,18.7,13.9,8.6,81,46,25,30.40,30.16,11,2,13,0.00
2013-11-26,46.0,39.5,33.0,46.0,33.5,10.9,100,84,32,30.16,29.46,20,4,20,1.81
2013-11-27,46.0,39.4,28.0,46.0,36.5,20.6,100,90,63,30.04,29.40,22,5,24,0.33
2013-11-28,43.0,32.1,23.0,29.4,24.6,21.7,100,76,45,30.30,30.04,6,1,9,0.00
2013-11-29,43.0,30.8,27.0,34.3,28.5,26.3,100,92,63,30.41,30.30,11,1,11,0.01
2013-11-30,47.0,37.3,29.0,30.9,27.0,24.7,85,68,44,30.48,30.20,15,3,15,0.00
2013-12-1,56.0,42.5,31.0,42.3,36.0,29.4,96,79,55,30.20,29.87,10,1,10,0.00
2013-12-2,56.0,45.6,35.0,44.6,39.8,35.0,100,82,52,29.88,29.68,9,1,10,0.00
2013-12-3,62.0,52.7,45.0,54.2,48.6,41.7,100,86,71,29.83,29.72,11,2,11,0.01
2013-12-4,65.0,58.4,53.0,62.4,57.8,53.0,100,98,89,29.92,29.81,8,2,10,0.00
2013-12-5,65.0,62.5,59.0,65.0,62.5,59.0,100,100,100,29.96,29.87,18,3,19,0.11
2013-12-6,75.0,68.2,62.0,67.6,65.0,62.0,100,90,72,29.91,29.79,24,6,28,0.00
2013-12-7,68.0,55.6,47.0,66.4,52.9,41.5,100,91,81,30.24,29.80,20,5,23,0.04
2013-12-8,47.0,39.3,35.0,41.5,37.6,35.0,100,94,78,30.24,30.08,14,4,16,0.08
2013-12-9,47.0,41.6,36.0,47.0,41.6,36.0,100,100,100,30.08,29.90,10,1,10,0.29
2013-12-10,53.0,46.9,36.0,52.0,42.7,26.3,100,87,49,30.17,29.77,20,3,23,0.17
2013-12-11,49.0,37.2,28.0,35.0,30.1,26.0,100,78,42,30.30,30.14,9,1,10,0.01
2013-12-12,47.0,36.1,29.0,32.7,26.8,21.1,100,73,37,30.26,30.13,11,2,13,0.00
2013-12-13,51.0,38.8,26.0,35.6,29.5,23.4,95,72,44,30.24,30.11,14,1,16,0.00
2013-12-14,50.0,44.0,41.0,50.0,39.7,30.9,100,86,61,30.11,29.64,21,4,24,0.81
2013-12-15,53.0,44.5,35.0,48.2,39.5,31.0,100,84,53,29.95,29.63,19,4,20,0.03
2013-12-16,55.0,41.4,31.0,38.5,34.6,30.5,100,79,48,30.04,29.95,14,3,14,0.00
2013-12-17,61.0,47.7,36.0,40.4,36.9,33.3,93,69,43,30.02,29.80,26,5,26,0.01
2013-12-18,51.0,43.1,36.0,36.5,24.6,17.3,72,49,28,30.13,29.90,15,3,15,0.00
2013-12-19,61.0,46.0,33.0,32.5,29.1,25.0,83,55,27,30.19,30.08,18,3,19,0.00
2013-12-20,64.0,52.7,42.0,55.1,46.4,31.6,100,80,57,30.11,30.00,17,2,18,0.00
2013-12-21,72.0,61.5,48.0,67.1,58.7,48.0,100,91,74,30.01,29.87,19,3,19,0.00
2013-12-22,74.0,67.3,63.0,71.8,66.8,63.0,100,98,85,29.94,29.85,34,4,37,1.37
2013-12-23,69.0,59.9,47.0,69.0,59.5,39.8,100,99,76,29.98,29.84,16,4,17,2.19
2013-12-24,48.0,41.6,32.0,39.8,29.7,18.1,84,63,45,30.28,29.97,16,4,18,3.84
2013-12-25,39.0,32.0,25.0,25.5,18.0,11.8,74,57,35,30.39,30.22,11,3,14,0.00
2013-12-26,51.0,40.4,35.0,32.4,27.0,21.0,82,60,38,30.23,30.10,8,1,9,0.00
2013-12-27,50.0,39.5,30.0,30.1,26.3,20.7,88,62,35,30.31,30.21,9,2,10,0.01
2013-12-28,54.0,41.6,28.0,38.1,31.2,27.5,100,70,41,30.27,29.95,9,1,10,0.00
2013-12-29,51.0,45.2,42.0,51.0,44.9,34.6,100,99,62,29.99,29.66,15,3,16,1.67
2013-12-30,53.0,44.8,36.0,51.0,43.6,36.0,100,96,80,29.98,29.81,9,1,10,0.00
2013-12-31,50.0,43.7,36.0,46.0,37.5,28.0,100,81,44,30.21,29.96,15,2,15,0.00
2014-1-1,51.0,40.8,33.0,38.3,34.8,31.8,100,81,51,30.25,29.99,8,1,8,0.00
2014-1-2,50.0,44.5,39.0,48.0,42.9,29.1,100,94,71,30.00,29.53,28,3,28,0.20